• In Uzbekistan
  • List of Countries
  • For 7 days
  • Water Temperature
  • Satellite Maps
  • Weather Map
  • Weather Widgets
  • user-avatar
    Login

    Hourly Weather Batumi

    Today, 23 October, Tuesday

    Time Temperature Precipitation Wind Pressure Humidity
    00:00 +19°C° 0.2 mm 2 mps 765 mmHg 87%
    01:00 +18°C° 0.1 mm 2 mps 764 mmHg 85%
    02:00 +19°C° 0.1 mm 1 mps 764 mmHg 84%
    03:00 +19°C° 0.1 mm 1 mps 764 mmHg 82%
    04:00 +19°C° 0 mm 1 mps 764 mmHg 81%
    05:00 +19°C° 0 mm 1 mps 764 mmHg 80%
    06:00 +18°C° 0 mm 2 mps 764 mmHg 78%
    07:00 +20°C° 0 mm 1 mps 764 mmHg 74%
    08:00 +21°C° 0 mm 1 mps 764 mmHg 70%
    09:00 +22°C° 0 mm 1 mps 764 mmHg 66%
    10:00 +24°C° 0 mm 2 mps 763 mmHg 61%
    11:00 +25°C° 0 mm 2 mps 763 mmHg 56%
    12:00 +26°C° 0 mm 2 mps 763 mmHg 51%
    13:00 +26°C° 0 mm 2 mps 762 mmHg 52%
    14:00 +26°C° 0 mm 2 mps 762 mmHg 53%
    15:00 +26°C° 0 mm 3 mps 762 mmHg 54%
    16:00 +24°C° 0.1 mm 2 mps 762 mmHg 61%
    17:00 +23°C° 0.1 mm 2 mps 761 mmHg 68%
    18:00 +20°C° 0.1 mm 2 mps 761 mmHg 75%
    19:00 +20°C° 0.1 mm 2 mps 761 mmHg 74%
    20:00 +20°C° 0.1 mm 2 mps 761 mmHg 73%
    21:00 +20°C° 0.1 mm 2 mps 761 mmHg 72%
    22:00 +20°C° 0 mm 2 mps 761 mmHg 70%
    23:00 +19°C° 0 mm 3 mps 761 mmHg 68%

    Tomorrow, 24 October, Wednesday

    Time Temperature Precipitation Wind Pressure Humidity
    00:00 +19°C° 0 mm 3 mps 761 mmHg 67%
    01:00 +19°C° 0.1 mm 3 mps 760 mmHg 67%
    02:00 +19°C° 0.1 mm 3 mps 760 mmHg 68%
    03:00 +19°C° 0.1 mm 3 mps 760 mmHg 68%
    04:00 +19°C° 0.1 mm 3 mps 759 mmHg 69%
    05:00 +19°C° 0.1 mm 3 mps 759 mmHg 71%
    06:00 +19°C° 0.1 mm 3 mps 759 mmHg 72%
    07:00 +20°C° 0.1 mm 3 mps 758 mmHg 70%
    08:00 +21°C° 0.1 mm 3 mps 758 mmHg 68%
    09:00 +24°C° 0.1 mm 3 mps 758 mmHg 66%
    10:00 +25°C° 0.2 mm 3 mps 757 mmHg 62%
    11:00 +25°C° 0.2 mm 3 mps 756 mmHg 59%
    12:00 +26°C° 0.2 mm 2 mps 756 mmHg 56%
    13:00 +26°C° 0.5 mm 3 mps 755 mmHg 59%
    14:00 +25°C° 0.5 mm 3 mps 754 mmHg 62%
    15:00 +25°C° 0.5 mm 3 mps 754 mmHg 65%
    16:00 +24°C° 0.5 mm 3 mps 753 mmHg 69%
    17:00 +22°C° 0.5 mm 4 mps 753 mmHg 72%
    18:00 +21°C° 0.5 mm 4 mps 753 mmHg 76%
    19:00 +21°C° 0.5 mm 4 mps 753 mmHg 76%
    20:00 +21°C° 0.5 mm 5 mps 752 mmHg 77%
    21:00 +21°C° 0.5 mm 5 mps 752 mmHg 77%
    22:00 +21°C° 0.7 mm 5 mps 752 mmHg 78%
    23:00 +21°C° 0.7 mm 5 mps 752 mmHg 79%

    Day after tomorrow, 25 October, Thursday

    Time Temperature Precipitation Wind Pressure Humidity
    00:00 +21°C° 0.7 mm 5 mps 751 mmHg 80%
    01:00 +21°C° 0.7 mm 5 mps 751 mmHg 81%
    02:00 +20°C° 0.7 mm 4 mps 751 mmHg 81%
    03:00 +20°C° 0.7 mm 4 mps 751 mmHg 82%
    04:00 +20°C° 0.5 mm 5 mps 750 mmHg 82%
    05:00 +20°C° 0.5 mm 5 mps 750 mmHg 81%
    06:00 +20°C° 0.5 mm 5 mps 749 mmHg 80%
    07:00 +20°C° 0.8 mm 5 mps 749 mmHg 82%
    08:00 +20°C° 0.8 mm 5 mps 749 mmHg 84%
    09:00 +20°C° 0.8 mm 5 mps 749 mmHg 85%
    10:00 +20°C° 2.8 mm 6 mps 749 mmHg 86%
    11:00 +20°C° 2.8 mm 7 mps 749 mmHg 86%
    12:00 +20°C° 2.8 mm 7 mps 749 mmHg 86%
    13:00 +18°C° 6.6 mm 7 mps 749 mmHg 89%
    14:00 +16°C° 6.6 mm 7 mps 750 mmHg 93%
    15:00 +15°C° 6.6 mm 7 mps 751 mmHg 96%
    16:00 +15°C° 3 mm 6 mps 752 mmHg 96%
    17:00 +14°C° 3 mm 6 mps 753 mmHg 95%
    18:00 +14°C° 3 mm 5 mps 754 mmHg 95%
    19:00 +13°C° 2.2 mm 5 mps 754 mmHg 95%
    20:00 +13°C° 2.2 mm 5 mps 755 mmHg 94%
    21:00 +13°C° 2.2 mm 5 mps 755 mmHg 94%
    22:00 +12°C° 2.4 mm 4 mps 755 mmHg 94%
    23:00 +12°C° 2.4 mm 4 mps 755 mmHg 94%

    26 October, Friday

    Time Temperature Precipitation Wind Pressure Humidity
    00:00 +12°C° 2.4 mm 4 mps 756 mmHg 93%
    01:00 +12°C° 2.7 mm 4 mps 756 mmHg 93%
    02:00 +11°C° 2.7 mm 4 mps 757 mmHg 93%
    03:00 +10°C° 2.7 mm 5 mps 757 mmHg 93%
    04:00 +11°C° 2 mm 4 mps 757 mmHg 93%
    05:00 +11°C° 2 mm 4 mps 758 mmHg 93%
    06:00 +11°C° 2 mm 4 mps 759 mmHg 93%
    07:00 +11°C° 1.9 mm 4 mps 759 mmHg 93%
    08:00 +12°C° 1.9 mm 4 mps 759 mmHg 92%
    09:00 +12°C° 1.9 mm 4 mps 759 mmHg 91%
    10:00 +12°C° 2 mm 4 mps 760 mmHg 91%
    11:00 +12°C° 2 mm 4 mps 760 mmHg 90%
    12:00 +12°C° 2 mm 4 mps 760 mmHg 90%
    13:00 +12°C° 1.7 mm 4 mps 760 mmHg 89%
    14:00 +12°C° 1.7 mm 4 mps 760 mmHg 89%
    15:00 +12°C° 1.7 mm 4 mps 760 mmHg 88%
    16:00 +12°C° 0.5 mm 4 mps 761 mmHg 88%
    17:00 +11°C° 0.5 mm 4 mps 762 mmHg 87%
    18:00 +9°C° 0.5 mm 5 mps 763 mmHg 86%
    19:00 +9°C° 0.3 mm 5 mps 764 mmHg 85%
    20:00 +8°C° 0.3 mm 5 mps 765 mmHg 83%
    21:00 +8°C° 0.3 mm 5 mps 766 mmHg 82%
    22:00 +8°C° 1.4 mm 6 mps 766 mmHg 82%
    23:00 +8°C° 1.4 mm 6 mps 767 mmHg 83%

    27 October, Saturday

    Time Temperature Precipitation Wind Pressure Humidity
    00:00 +9°C° 1.4 mm 6 mps 767 mmHg 84%
    01:00 +9°C° 1.6 mm 6 mps 768 mmHg 84%
    02:00 +9°C° 1.6 mm 6 mps 769 mmHg 84%
    03:00 +9°C° 1.6 mm 5 mps 769 mmHg 84%
    04:00 +9°C° 0.7 mm 5 mps 770 mmHg 83%
    05:00 +9°C° 0.7 mm 5 mps 770 mmHg 82%
    06:00 +8°C° 0.7 mm 4 mps 771 mmHg 81%
    07:00 +11°C° 0.2 mm 4 mps 771 mmHg 81%
    08:00 +12°C° 0.2 mm 3 mps 771 mmHg 80%
    09:00 +13°C° 0.2 mm 3 mps 771 mmHg 80%
    10:00 +15°C° 0 mm 2 mps 771 mmHg 79%
    11:00 +16°C° 0 mm 2 mps 771 mmHg 77%
    12:00 +18°C° 0 mm 1 mps 770 mmHg 76%
    13:00 +18°C° 0 mm 1 mps 770 mmHg 76%
    14:00 +17°C° 0 mm 2 mps 770 mmHg 76%
    15:00 +17°C° 0 mm 2 mps 769 mmHg 77%
    16:00 +16°C° 0 mm 2 mps 770 mmHg 77%
    17:00 +14°C° 0 mm 3 mps 770 mmHg 77%
    18:00 +12°C° 0 mm 4 mps 770 mmHg 77%
    19:00 +12°C° 0 mm 4 mps 770 mmHg 75%
    20:00 +12°C° 0 mm 4 mps 770 mmHg 73%
    21:00 +12°C° 0 mm 4 mps 771 mmHg 71%
    22:00 +12°C° 0 mm 4 mps 770 mmHg 69%
    23:00 +11°C° 0 mm 4 mps 770 mmHg 67%

    28 October, Sunday

    Time Temperature Precipitation Wind Pressure Humidity
    00:00 +10°C° 0 mm 5 mps 770 mmHg 65%
    01:00 +10°C° 0 mm 5 mps 770 mmHg 64%
    02:00 +11°C° 0 mm 4 mps 770 mmHg 63%
    03:00 +11°C° 0 mm 4 mps 770 mmHg 61%
    04:00 +11°C° 0 mm 4 mps 770 mmHg 61%
    05:00 +11°C° 0 mm 4 mps 770 mmHg 60%
    06:00 +11°C° 0 mm 4 mps 770 mmHg 59%
    07:00 +13°C° 0 mm 4 mps 770 mmHg 61%
    08:00 +15°C° 0 mm 4 mps 770 mmHg 64%
    09:00 +17°C° 0 mm 4 mps 770 mmHg 66%
    10:00 +19°C° 0 mm 4 mps 769 mmHg 67%
    11:00 +20°C° 0 mm 3 mps 769 mmHg 68%
    12:00 +22°C° 0 mm 3 mps 768 mmHg 70%
    13:00 +22°C° 0 mm 3 mps 768 mmHg 70%
    14:00 +22°C° 0 mm 3 mps 768 mmHg 71%
    15:00 +22°C° 0 mm 3 mps 768 mmHg 71%
    16:00 +20°C° 0 mm 3 mps 768 mmHg 68%
    17:00 +18°C° 0 mm 3 mps 768 mmHg 65%
    18:00 +17°C° 0 mm 4 mps 768 mmHg 63%
    19:00 +15°C° 0 mm 4 mps 768 mmHg 60%
    20:00 +15°C° 0 mm 4 mps 769 mmHg 57%
    21:00 +15°C° 0 mm 4 mps 769 mmHg 55%
    22:00 +14°C° 0 mm 4 mps 769 mmHg 54%
    23:00 +14°C° 0 mm 4 mps 768 mmHg 53%

    29 October, Monday

    Time Temperature Precipitation Wind Pressure Humidity
    00:00 +14°C° 0 mm 4 mps 768 mmHg 52%
    01:00 +14°C° 0 mm 4 mps 768 mmHg 52%
    02:00 +14°C° 0 mm 4 mps 768 mmHg 51%
    03:00 +14°C° 0 mm 4 mps 768 mmHg 51%
    04:00 +14°C° 0 mm 4 mps 768 mmHg 50%
    05:00 +14°C° 0 mm 4 mps 768 mmHg 50%
    06:00 +14°C° 0 mm 4 mps 768 mmHg 50%
    07:00 +17°C° 0 mm 3 mps 768 mmHg 52%
    08:00 +18°C° 0 mm 3 mps 768 mmHg 55%
    09:00 +20°C° 0 mm 3 mps 768 mmHg 58%
    10:00 +21°C° 0 mm 3 mps 767 mmHg 59%
    11:00 +24°C° 0 mm 3 mps 767 mmHg 59%
    12:00 +25°C° 0 mm 2 mps 766 mmHg 60%
    13:00 +26°C° 0 mm 2 mps 766 mmHg 61%
    14:00 +26°C° 0 mm 2 mps 766 mmHg 61%
    15:00 +26°C° 0 mm 2 mps 765 mmHg 62%
    16:00 +24°C° 0 mm 3 mps 766 mmHg 60%
    17:00 +21°C° 0 mm 3 mps 766 mmHg 57%
    18:00 +19°C° 0 mm 3 mps 766 mmHg 55%
    19:00 +18°C° 0 mm 3 mps 766 mmHg 52%
    20:00 +18°C° 0 mm 3 mps 766 mmHg 49%
    21:00 +17°C° 0 mm 4 mps 767 mmHg 47%
    22:00 +17°C° 0 mm 4 mps 767 mmHg 46%
    23:00 +17°C° 0 mm 4 mps 767 mmHg 46%
    Show more